Flag for U.S.A. Weather past 2 weeks in Lincoln, Nebraska, U.S.A.

Now
38 °F

Clear.


Feels Like: 38 °F
Forecast: 32 / 56 °F
Wind: No wind

Location: Lincoln Municipal Airport

Current Time: Jan 26, 2015 at 10:23:19 PM

Latest Report: Jan 26, 2015 at 8:54 PM


Visibility: 10 mi

Pressure: 30.07 "Hg

Humidity: 68%

Dew point: 28 °F

Location of LincolnLocation

Historic Weather in Lincoln — Graph

°F

Lincoln temperature yesterday

Maximum temperature yesterday: 45 °F (at 12:54 AM)
Minimum temperature yesterday: 30 °F (at 9:54 PM)
Average temperature yesterday: 38 °F

Past Weeks' High & Low Weather Summary

 TemperatureHumidityPressure
High62 °F (Jan 26, 2:54 PM)92% (Jan 16, 12:54 AM)30.82 "Hg (Jan 16, 12:54 AM)
Low-4 °F (Jan 13, 3:54 AM)27% (Jan 18, 3:54 PM)29.67 "Hg (Jan 24, 9:54 PM)
Average33 °F65%30.16 "Hg
* Reported Jan 11 8:54 PM — Jan 26 8:54 PM, Lincoln, Weather by CustomWeather, © 2014

Note: Actual official high and low records may vary slightly from our data, if they occured in-between our weather recording intervals... More about our weather records

Advertising

Lincoln weather history for previous 24 hours

 ConditionsComfort  
Time TempWeatherWind HumidityBarometerVisibility
8:54 PM
Jan 26
38 °FClear.No wind68%30.07 "Hg10 mi
7:54 PM42 °FClear.6 mph60%30.06 "Hg10 mi
6:54 PM47 °FClear.5 mph54%30.04 "Hg10 mi
5:54 PM54 °FClear.7 mph41%30.02 "Hg10 mi
4:54 PM59 °FSunny.9 mph36%30.01 "Hg10 mi
3:54 PM61 °FSunny.16 mph32%29.98 "Hg10 mi
2:54 PM62 °FSunny.16 mph32%29.97 "Hg10 mi
1:54 PM61 °FSunny.17 mph35%29.96 "Hg10 mi
12:54 PM59 °FSunny.18 mph39%29.98 "Hg10 mi
11:54 AM56 °FSunny.16 mph47%29.98 "Hg10 mi
10:54 AM53 °FSunny.16 mph52%29.97 "Hg10 mi
9:54 AM47 °FSunny.14 mph61%29.94 "Hg10 mi
8:54 AM36 °FSunny.5 mph75%29.96 "Hg10 mi
7:54 AM33 °FSunny.5 mph78%29.95 "Hg10 mi
6:54 AM34 °FClear.5 mph79%29.94 "Hg10 mi
5:54 AM30 °FClear.5 mph89%29.96 "Hg10 mi
4:54 AM29 °FClear.5 mph89%29.97 "Hg10 mi
3:54 AM31 °FClear.6 mph85%30.01 "Hg10 mi
2:54 AM31 °FClear.6 mph89%30.04 "Hg10 mi
1:54 AM33 °FOvercast.6 mph85%30.06 "Hg10 mi
12:54 AM30 °FOvercast.No wind89%30.10 "Hg10 mi
11:54 PM
Jan 25
32 °FPassing clouds.No wind85%30.10 "Hg10 mi
10:54 PM32 °FOvercast.3 mph88%30.10 "Hg10 mi
Weather by CustomWeather, © 2014

See weather overviewHow to use our weather pages